Startseite
Über Mich
AHP4
Galerie
Sehschlangen
Tourenbuch
Bookmarks
Elektronik
Bewertung
Geschichten
[Tagesmessung] [Jahreswerte] [Information]

Messwerte vom 04.03.2022

Die letzten Messwerte von 23:58:47 Uhr:
KategorieMesswert
Temperatur [°C]0
Luftdruck [mBar]1008
Sonneneinstrahlung0
Wind [km/h]0 aus Nordost
Niederschlag [l/m²]0
rel.Luftfeucht.80.9%
CO2 [ppm]705

Diagramme
Messwerte vom 04.03.2022
Tagesaggregation
KategorieMinimumMaximumSchnittSumme
Temperatur [°C]-151.5386
Luftdruck [mBar]100610101007.9228
Sonneneinstrahlung24387.8643
Wind [km/h]0
rF [%]71.796.686.47
Niederschlag [l/m²]0
CO2 [ppm]419729600.3
Einordnung alsFrosttag
Kalter Tag

Messungen an benachbarten Tagen: Zur Jahresaggregation 2022
Tabelle aller Messwerte
UhrzeitTemperatur [°C]Luftdruck [mBar]SonneWind [km/h]RichtungRegen [l/m²]rF [%]CO2 [ppm]
00:01:46 1 1006 0 0 NW 0 94.7 436
00:04:46 1 1006 0 0 N 0 94.5 438
00:07:46 1 1006 0 0 SW 0 94.2 440
00:10:47 1 1006 0 0 O 0 93.7 442
00:13:47 1 1006 0 0 O 0 93.2 442
00:16:47 1 1007 0 0 O 0 93.3 440
00:19:47 1 1006 0 0 NO 0 93.3 430
00:22:48 1 1006 0 0 NO 0 93.4 419
00:25:47 1 1006 0 0 SW 0 93.4 421
00:28:49 1 1006 0 0 NW 0 93.4 436
00:31:47 1 1006 0 0 SO 0 93.4 444
00:34:49 1 1006 0 0 SO 0 93.4 442
00:37:46 1 1006 0 0 NO 0 93.4 439
00:40:47 1 1007 0 0 O 0 93.2 436
00:43:46 1 1007 0 0 O 0 93.2 439
00:46:47 1 1007 0 0 NO 0 93.2 439
00:49:47 1 1007 0 0 O 0 93.1 439
00:52:45 1 1007 0 0 N 0 93 436
00:55:48 1 1006 0 0 NO 0 93 442
00:58:47 1 1006 0 0 S 0 93 445
01:01:47 1 1006 0 0 NO 0 92.9 445
01:04:45 1 1006 0 0 NO 0 92.9 436
01:07:47 1 1006 0 0 SO 0 92.8 439
01:10:46 1 1006 0 0 NO 0 92.8 436
01:13:49 1 1007 0 0 SO 0 92.5 442
01:16:46 1 1007 0 0 N 0 92.3 436
01:19:46 1 1006 0 0 O 0 92.3 439
01:22:46 1 1007 0 0 SW 0 92.3 434
01:25:46 1 1007 0 0 O 0 92.2 439
01:28:44 1 1007 0 0 O 0 92 439
01:31:46 1 1007 0 0 O 0 91.9 445
01:34:45 1 1007 0 0 SO 0 91.9 442
01:37:46 1 1006 0 0 O 0 91.9 445
01:40:48 1 1007 0 0 NW 0 91.8 451
01:43:47 1 1006 0 0 O 0 91.7 456
01:46:45 1 1006 0 0 O 0 91.6 451
01:49:50 1 1007 0 0 NW 0 91.6 450
01:52:45 1 1007 0 0 NO 0 91.7 442
01:55:45 1 1006 0 0 SO 0 91.6 439
01:58:47 1 1006 0 0 O 0 91.5 442
02:01:48 1 1007 0 0 O 0 91.6 448
02:04:45 1 1007 0 0 O 0 91.7 454
02:07:48 1 1006 0 0 S 0 91.7 460
02:10:48 1 1006 0 0 SO 0 91.8 454
02:13:47 1 1006 0 0 SW 0 91.8 457
02:16:44 1 1006 0 0 S 0 91.9 456
02:19:47 1 1007 0 0 S 0 92 463
02:22:47 1 1007 0 0 SO 0 92.2 463
02:25:46 1 1006 0 0 O 0 92.3 463
02:28:48 1 1006 0 0 N 0 92.4 463
02:31:47 1 1006 0 0 NO 0 92.4 463
02:34:48 1 1007 0 0 O 0 92.8 460
02:37:46 1 1007 0 0 0 93.2 466
02:40:47 1 1008 0 0 NO 0 93.4 468
02:43:49 1 1006 0 0 NO 0 93.9 467
02:46:45 1 1007 0 0 N 0 94.1 466
02:49:46 1 1007 0 0 N 0 94.3 459
02:52:49 1 1007 0 0 NO 0 94.3 466
02:55:47 1 1007 0 0 N 0 94.3 468
02:58:46 1 1006 0 0 O 0 94.4 477
03:01:46 1 1006 0 0 SO 0 94.5 477
03:04:47 1 1006 0 0 N 0 94.5 472
03:07:47 1 1006 0 0 N 0 94.5 475
03:10:46 1 1007 0 0 N 0 94.7 474
03:13:47 1 1006 0 0 NO 0 94.9 477
03:16:46 1 1006 0 0 NO 0 95 472
03:19:47 1 1006 0 0 NO 0 95 469
03:22:47 1 1006 0 0 NO 0 95 468
03:25:47 1 1007 0 0 NO 0 95 471
03:28:47 1 1006 0 0 NO 0 95.1 471
03:31:48 1 1006 0 0 NO 0 95.1 472
03:34:44 1 1007 0 0 O 0 95 474
03:37:48 1 1007 0 0 O 0 95 468
03:40:46 1 1006 0 0 O 0 95.2 468
03:43:46 1 1006 0 0 O 0 95.2 471
03:46:44 1 1007 0 0 O 0 95.3 473
03:49:47 1 1006 0 0 N 0 95.7 474
03:52:47 1 1007 0 0 O 0 95.6 480
03:55:45 1 1006 0 0 O 0 95.4 471
03:58:47 0 1006 0 0 NO 0 95.4 471
04:01:44 0 1006 0 0 O 0 95.4 474
04:04:45 0 1006 0 0 O 0 95.4 486
04:07:49 0 1006 0 0 SO 0 95.3 492
04:10:48 0 1006 0 0 NO 0 95.3 485
04:13:46 0 1006 0 0 SO 0 95.3 480
04:16:48 0 1006 0 0 SO 0 95.3 475
04:19:46 0 1006 0 0 SO 0 95.3 471
04:22:49 0 1006 0 0 SO 0 95.3 474
04:25:48 0 1007 0 0 SO 0 95.4 479
04:28:46 0 1006 0 0 NO 0 95.5 480
04:31:47 0 1006 0 0 NO 0 95.5 478
04:34:46 0 1006 0 0 NO 0 95.6 474
04:37:45 0 1006 0 0 NO 0 95.6 477
04:40:47 0 1006 0 0 NO 0 95.5 480
04:43:47 0 1006 0 0 NO 0 95.5 481
04:46:49 0 1006 0 0 NO 0 95.5 482
04:49:48 0 1006 0 0 NO 0 95.5 483
04:52:46 0 1006 0 0 NO 0 96 489
04:55:47 0 1006 0 0 NO 0 96 486
04:58:49 0 1006 0 0 NO 0 96 486
05:01:47 0 1007 0 0 NO 0 96 484
05:04:47 0 1007 0 0 NO 0 95.9 483
05:07:51 0 1007 0 0 NO 0 95.9 486
05:10:46 0 1007 0 0 NO 0 95.7 495
05:13:49 0 1006 0 0 NO 0 95.7 495
05:16:48 0 1006 0 0 NO 0 95.8 489
05:19:48 -1 1007 0 0 NO 0 95.7 483
05:22:45 -1 1007 0 0 NO 0 95.7 477
05:25:47 -1 1006 0 0 NO 0 95.7 480
05:28:47 -1 1006 0 0 NO 0 95.7 485
05:31:46 -1 1006 0 0 NO 0 95.7 486
05:34:46 -1 1006 0 0 NO 0 95.7 489
05:37:48 -1 1006 0 0 NO 0 95.8 500
05:40:46 -1 1007 0 0 NO 0 96.2 501
05:43:47 -1 1007 0 0 NO 0 96.6 492
05:46:48 -1 1007 0 0 O 0 96.6 486
05:49:48 -1 1007 0 0 O 0 96.6 486
05:52:48 -1 1006 0 0 O 0 96.6 490
05:55:46 -1 1006 0 0 O 0 96.6 489
05:58:46 -1 1007 0 0 O 0 96.6 492
06:01:47 -1 1007 0 0 NO 0 96.6 495
06:04:50 -1 1007 0 0 NO 0 96.6 492
06:07:48 -1 1006 0 0 NO 0 96.6 492
06:10:46 -1 1007 0 0 O 0 96.6 486
06:13:46 -1 1007 0 0 O 0 96.6 490
06:16:47 -1 1006 0 0 O 0 96.6 498
06:19:47 -1 1007 0 0 O 0 96.6 491
06:22:46 -1 1006 0 0 N 0 96.6 486
06:25:47 -1 1006 0 0 N 0 96.6 489
06:28:46 -1 1006 0 0 N 0 96.6 489
06:31:47 -1 1007 0 0 N 0 96.6 486
06:34:46 -1 1007 4 0 N 0 96.6 483
06:37:47 -1 1007 7 0 N 0 96.6 486
06:40:45 -1 1007 11 0 N 0 96.6 485
06:43:49 -1 1007 16 0 SO 0 96.6 485
06:46:47 -1 1006 22 0 NO 0 96.6 489
06:49:48 -1 1006 30 0 NO 0 96.6 495
06:52:47 -1 1006 39 0 NO 0 96.6 490
06:55:49 -1 1006 49 0 SO 0 96.6 495
06:58:50 -1 1007 59 0 SO 0 96.6 506
07:01:48 -1 1007 68 0 SO 0 96.6 506
07:04:48 -1 1007 73 0 O 0 96.6 498
07:07:46 0 1007 78 0 O 0 96.6 492
07:10:46 0 1007 87 0 O 0 96.6 495
07:13:49 0 1007 95 0 O 0 96.6 508
07:16:48 0 1007 98 0 N 0 96.6 515
07:19:51 0 1007 100 0 NO 0 96.6 521
07:22:48 0 1007 105 0 SO 0 96.6 533
07:25:50 0 1008 110 0 O 0 96.6 542
07:28:47 0 1007 115 0 NO 0 96.6 550
07:31:46 0 1007 120 0 O 0 96.6 553
07:34:47 0 1008 121 0 NO 0 96.6 553
07:37:47 0 1008 125 0 0 96.6 559
07:40:49 0 1008 131 0 N 0 96.6 562
07:43:49 0 1007 140 0 NO 0 96.6 555
07:46:47 0 1008 140 0 NO 0 96.6 553
07:49:48 0 1008 140 0 SO 0 96.6 551
07:52:49 0 1008 148 0 NO 0 96.4 538
07:55:46 0 1007 156 0 W 0 96.4 533
07:58:47 0 1009 154 0 0 96.4 531
08:01:47 0 1008 156 0 O 0 96.6 538
08:04:48 0 1007 160 0 N 0 96.6 542
08:07:48 0 1007 159 0 0 96.6 539
08:10:48 0 1008 159 0 N 0 96.6 545
08:13:49 0 1008 156 0 NO 0 96.6 550
08:16:50 0 1008 165 0 N 0 96.6 559
08:19:48 0 1009 162 0 N 0 96.6 568
08:22:49 0 1008 166 0 NO 0 96.6 568
08:25:48 1 1008 173 0 0 96.6 556
08:28:47 1 1009 173 0 NO 0 96.6 562
08:31:50 1 1009 163 0 O 0 96.6 562
08:34:47 1 1009 162 0 NO 0 96.6 554
08:37:46 1 1008 161 0 O 0 96.6 562
08:40:48 1 1008 166 0 NO 0 96.6 559
08:43:50 1 1009 176 0 NO 0 96.6 560
08:46:48 1 1008 177 0 NO 0 96.5 564
08:49:48 1 1008 170 0 O 0 96.4 560
08:52:50 1 1009 177 0 NO 0 96.4 554
08:55:48 1 1009 181 0 O 0 96.1 559
08:58:49 1 1008 182 0 N 0 96.1 568
09:01:50 1 1009 177 0 SO 0 96.1 568
09:04:49 1 1008 182 0 NW 0 95.9 570
09:07:49 1 1008 187 0 NO 0 95.9 568
09:10:48 1 1008 186 0 0 95.9 571
09:13:48 1 1008 185 0 NO 0 95.1 577
09:16:48 1 1009 189 0 SO 0 95.1 579
09:19:50 1 1009 204 0 SW 0 95.2 585
09:22:50 1 1008 206 0 SO 0 95.6 587
09:25:48 1 1009 200 0 O 0 94.7 592
09:28:48 1 1010 204 0 O 0 94.2 583
09:31:48 1 1009 197 0 O 0 93.8 586
09:34:49 1 1009 195 0 SO 0 93.6 580
09:37:51 1 1009 207 0 N 0 93.4 574
09:40:47 1 1009 203 0 SO 0 93.4 574
09:43:48 1 1009 198 0 S 0 93.5 580
09:46:46 1 1010 196 0 O 0 93.3 579
09:49:49 1 1009 204 0 NO 0 93.2 582
09:52:49 1 1009 202 0 N 0 93.6 586
09:55:49 1 1009 191 0 SO 0 93.7 590
09:58:48 1 1009 203 0 S 0 94.2 591
10:01:48 1 1010 203 0 S 0 94.3 594
10:04:49 1 1010 199 0 S 0 94 603
10:07:48 1 1009 195 0 SO 0 93.7 609
10:10:49 1 1009 191 0 O 0 93.2 609
10:13:46 1 1009 187 0 0 93 597
10:16:47 1 1009 194 0 N 0 93.5 595
10:19:48 1 1009 197 0 NW 0 93.5 594
10:22:46 1 1009 203 0 0 93.8 589
10:25:50 1 1009 187 0 NW 0 93.8 597
10:28:49 1 1009 187 0 NO 0 93.8 600
10:31:47 1 1010 195 0 O 0 94.1 603
10:34:47 1 1009 194 0 N 0 94.6 597
10:37:47 1 1009 195 0 0 94.8 601
10:40:47 1 1009 195 0 N 0 94.6 598
10:43:47 0 1010 190 0 SO 0 94.7 594
10:46:51 0 1009 192 0 NO 0 94.5 591
10:49:46 0 1010 199 0 N 0 94.4 604
10:52:49 0 1009 193 0 SO 0 94 600
10:55:50 0 1009 195 0 SO 0 94 603
10:58:50 0 1009 197 0 NW 0 94.2 603
11:01:47 0 1009 202 0 O 0 94.2 606
11:04:49 0 1009 205 0 NO 0 94 604
11:07:47 1 1010 208 0 NO 0 94 679
11:10:49 1 1009 210 0 SO 0 93.8 676
11:13:49 1 1010 214 0 NO 0 92.8 667
11:16:47 1 1010 214 0 O 0 92.8 667
11:19:48 1 1009 217 0 O 0 92.8 659
11:22:47 1 1009 220 0 NO 0 92.3 662
11:25:46 2 1010 217 0 S 0 91.9 661
11:28:47 2 1009 216 0 S 0 91.5 661
11:31:48 2 1010 216 0 S 0 90.3 662
11:34:48 2 1009 216 0 SO 0 89.9 670
11:37:47 2 1010 214 0 SO 0 89.5 677
11:40:48 2 1009 215 0 SO 0 88.9 676
11:43:49 2 1009 214 0 SO 0 87.8 679
11:46:47 2 1009 213 0 SO 0 87.8 676
11:49:48 3 1010 216 0 SO 0 87.8 676
11:52:48 3 1009 218 0 SO 0 87.8 674
11:55:48 3 1010 224 0 S 0 87.9 674
11:58:46 3 1010 223 0 SO 0 87.4 672
12:01:50 3 1009 222 0 SO 0 86.3 671
12:04:50 3 1009 221 0 SO 0 85.2 673
12:07:51 3 1009 219 0 SO 0 85.5 656
12:10:49 3 1009 219 0 SO 0 85.4 656
12:13:47 3 1009 219 0 NO 0 85.3 659
12:16:48 3 1009 218 0 O 0 84.3 668
12:19:48 3 1009 216 0 NO 0 84.1 660
12:22:47 3 1009 211 0 O 0 83.4 665
12:25:49 3 1009 206 0 SO 0 82.6 676
12:28:49 3 1009 207 0 SO 0 83.3 668
12:31:49 3 1009 216 0 NO 0 84.1 665
12:34:49 3 1009 222 0 N 0 84.5 650
12:37:48 3 1010 224 0 NO 0 84.1 659
12:40:46 3 1010 224 0 O 0 83.7 662
12:43:48 3 1010 224 0 O 0 83.2 673
12:46:47 3 1009 220 0 NO 0 82.1 679
12:49:48 3 1009 214 0 N 0 81.7 683
12:52:48 3 1009 211 0 NO 0 81.7 673
12:55:47 3 1010 212 0 NO 0 81.6 670
12:58:48 3 1009 220 0 N 0 82 668
13:01:48 3 1010 223 0 SW 0 83.2 659
13:04:51 3 1009 222 0 O 0 82.9 509
13:07:48 3 1009 219 0 N 0 82.8 503
13:10:47 3 1009 220 0 N 0 81.9 559
13:13:46 3 1010 219 0 N 0 82 571
13:16:46 3 1010 217 0 O 0 82.2 574
13:19:48 3 1009 221 0 SO 0 82.7 586
13:22:48 3 1009 225 0 N 0 83.3 593
13:25:50 3 1009 226 0 NO 0 82.6 598
13:28:47 3 1009 226 0 O 0 82.4 606
13:31:49 3 1009 230 0 NO 0 82.8 612
13:34:48 4 1009 233 0 N 0 82 608
13:37:50 4 1009 233 0 NO 0 81.3 607
13:40:47 4 1009 230 0 SO 0 80.7 607
13:43:47 4 1009 228 0 N 0 79.4 609
13:46:51 4 1009 231 0 0 78.9 610
13:49:47 4 1009 231 0 N 0 78.9 617
13:52:52 4 1009 230 0 NO 0 79.1 624
13:55:50 4 1009 231 0 NW 0 79.3 621
13:58:46 4 1009 229 0 W 0 78.8 629
14:01:48 4 1009 230 0 SO 0 77.9 626
14:04:47 4 1009 243 0 SW 0 78.9 626
14:07:50 5 1009 236 0 N 0 78.6 621
14:10:45 5 1009 237 0 O 0 77 624
14:13:45 5 1009 243 0 N 0 74.9 623
14:16:47 5 1009 236 0 S 0 73 629
14:19:48 5 1009 235 0 N 0 73 636
14:22:46 5 1009 230 0 SO 0 73.1 635
14:25:47 5 1009 225 0 S 0 72.6 644
14:28:48 5 1008 223 0 SO 0 73.5 656
14:31:47 5 1008 220 0 O 0 73.7 665
14:34:47 5 1009 217 0 O 0 74.5 664
14:37:48 4 1009 219 0 N 0 74.5 659
14:40:47 4 1009 223 0 S 0 73.7 653
14:43:49 4 1009 224 0 N 0 74.9 653
14:46:46 4 1008 225 0 N 0 74.8 650
14:49:47 4 1009 222 0 N 0 75.3 651
14:52:52 4 1008 218 0 NW 0 75.4 651
14:55:47 4 1009 213 0 O 0 74.9 656
14:58:48 4 1008 212 0 NO 0 75.8 659
15:01:50 4 1008 210 0 SO 0 75.9 665
15:04:49 4 1008 211 0 SO 0 76.3 659
15:07:47 4 1009 211 0 SO 0 76.7 665
15:10:46 4 1008 207 0 O 0 77.2 671
15:13:47 4 1008 205 0 S 0 76.2 680
15:16:47 4 1009 204 0 N 0 75.8 688
15:19:48 4 1009 203 0 SO 0 76.2 697
15:22:48 4 1008 204 0 O 0 77.3 701
15:25:49 4 1009 209 0 SO 0 77 697
15:28:47 4 1008 217 0 SO 0 75.7 682
15:31:47 4 1009 217 0 O 0 75.6 667
15:34:47 4 1008 215 0 O 0 75.4 670
15:37:48 4 1009 212 0 N 0 76 673
15:40:46 4 1009 210 0 N 0 76.4 682
15:43:47 4 1008 216 0 O 0 76.2 679
15:46:48 4 1008 221 0 S 0 77 687
15:49:48 4 1009 223 0 SW 0 77.9 687
15:52:48 4 1009 224 0 SO 0 77.9 685
15:55:47 4 1009 218 0 S 0 77 682
15:58:47 4 1009 217 0 S 0 76.1 682
16:01:47 4 1008 219 0 NO 0 76 687
16:04:47 4 1008 219 0 N 0 74.6 685
16:07:48 4 1008 212 0 SO 0 74.8 683
16:10:48 4 1008 201 0 NO 0 74.5 687
16:13:47 4 1008 193 0 S 0 75.7 691
16:16:52 4 1008 190 0 SO 0 75.9 682
16:19:47 4 1008 193 0 N 0 76.1 673
16:22:51 4 1008 195 0 SO 0 76.2 672
16:25:48 4 1008 196 0 O 0 76.2 665
16:28:49 4 1009 191 0 NO 0 76.1 674
16:31:52 4 1008 200 0 NW 0 75.9 689
16:34:49 4 1008 205 0 SO 0 75.8 685
16:37:48 4 1009 203 0 SO 0 76.1 686
16:40:48 4 1008 201 0 NO 0 76.5 688
16:43:48 4 1008 198 0 SO 0 76 691
16:46:50 4 1008 189 0 S 0 75.5 694
16:49:49 4 1007 187 0 SO 0 75.5 693
16:52:48 4 1008 180 0 S 0 75.2 700
16:55:47 4 1008 174 0 NO 0 74.3 702
16:58:47 4 1008 172 0 NO 0 72.6 687
17:01:47 4 1008 164 0 NO 0 71.8 694
17:04:50 4 1007 163 0 NO 0 72 690
17:07:49 3 1007 165 0 NO 0 72.2 688
17:10:47 3 1008 165 0 NO 0 71.9 682
17:13:49 3 1008 154 0 SO 0 71.7 701
17:16:46 3 1007 149 0 O 0 72.3 702
17:19:47 3 1007 145 0 SO 0 73.3 697
17:22:49 3 1008 137 0 NO 0 73.7 692
17:25:46 3 1008 129 0 N 0 73.7 686
17:28:47 3 1008 125 0 O 0 73.8 692
17:31:47 3 1008 121 0 NO 0 74.2 690
17:34:48 3 1008 116 0 NW 0 74.4 691
17:37:47 3 1008 106 0 NO 0 73.9 694
17:40:50 3 1007 100 0 NO 0 73.7 698
17:43:46 3 1007 94 0 SO 0 74.3 695
17:46:48 3 1008 85 0 SO 0 74.4 692
17:49:48 3 1007 79 0 NO 0 75.1 694
17:52:48 3 1008 72 0 O 0 75.3 691
17:55:48 3 1008 63 0 O 0 75.5 695
17:58:48 3 1008 52 0 O 0 75.6 690
18:01:48 3 1007 42 0 O 0 76.1 688
18:04:46 3 1008 33 0 O 0 76.3 685
18:07:46 3 1008 25 0 O 0 76.3 685
18:10:49 3 1007 19 0 O 0 76.7 692
18:13:49 3 1008 14 0 O 0 77 686
18:16:46 3 1008 9 0 O 0 77.2 685
18:19:45 3 1007 5 0 O 0 77.4 685
18:22:47 3 1008 3 0 O 0 77.9 690
18:25:46 3 1008 0 0 O 0 78 695
18:28:47 3 1008 0 0 SO 0 78 685
18:31:45 3 1008 0 0 O 0 78 694
18:34:48 2 1009 0 0 SO 0 78.1 695
18:37:48 2 1008 0 0 NO 0 78.3 695
18:40:45 2 1008 0 0 NO 0 78.5 697
18:43:48 2 1008 0 0 NO 0 78.6 694
18:46:45 3 1008 0 0 NO 0 78.6 687
18:49:48 2 1008 0 0 NO 0 78.4 694
18:52:46 3 1008 0 0 NO 0 78.1 698
18:55:48 3 1008 0 0 NO 0 77.9 697
18:58:47 3 1008 0 0 NO 0 77.7 697
19:01:48 3 1008 0 0 NO 0 77.3 700
19:04:46 2 1009 0 0 NO 0 77.1 700
19:07:48 2 1008 0 0 NO 0 77.3 708
19:10:47 2 1009 0 0 NO 0 77.5 709
19:13:46 2 1008 0 0 NO 0 77.6 708
19:16:47 2 1008 0 0 NO 0 77.9 708
19:19:46 2 1008 0 0 O 0 77.7 700
19:22:44 2 1009 0 0 O 0 77.6 702
19:25:45 2 1008 0 0 O 0 77.9 700
19:28:48 2 1009 0 0 O 0 78.1 715
19:31:44 2 1008 0 0 O 0 78.1 708
19:34:47 2 1009 0 0 O 0 78 702
19:37:47 2 1009 0 0 O 0 77.9 708
19:40:45 2 1009 0 0 O 0 77.8 714
19:43:45 2 1008 0 0 O 0 77.5 708
19:46:45 2 1008 0 0 NO 0 77.3 708
19:49:47 2 1009 0 0 NO 0 77.1 708
19:52:46 2 1008 0 0 NO 0 77 706
19:55:45 2 1008 0 0 O 0 77 705
19:58:48 2 1009 0 0 O 0 77.5 711
20:01:46 2 1009 0 0 O 0 77.6 719
20:04:47 2 1009 0 0 O 0 78.2 714
20:07:49 2 1009 0 0 O 0 78.5 717
20:10:46 2 1009 0 0 NO 0 78.7 710
20:13:45 2 1009 0 0 O 0 79 708
20:16:47 2 1009 0 0 SO 0 78.9 713
20:19:45 2 1009 0 0 O 0 78.9 716
20:22:46 2 1009 0 0 O 0 79.1 706
20:25:46 2 1009 0 0 N 0 79.2 709
20:28:45 2 1009 0 0 N 0 79.5 705
20:31:45 2 1008 0 0 W 0 79.4 706
20:34:47 2 1008 0 0 SW 0 78.8 702
20:37:47 2 1009 0 0 SO 0 78.5 700
20:40:46 2 1008 0 0 W 0 78.5 705
20:43:47 2 1009 0 0 SO 0 78.4 708
20:46:46 2 1009 0 0 SO 0 78.6 714
20:49:46 2 1009 0 0 SO 0 78.4 720
20:52:47 2 1009 0 0 SO 0 78.3 723
20:55:48 2 1009 0 0 SO 0 78.2 719
20:58:48 2 1008 0 0 SO 0 78.2 717
21:01:45 2 1009 0 0 S 0 78.4 705
21:04:47 1 1009 0 0 SO 0 78.6 705
21:07:47 1 1009 0 0 SO 0 79 708
21:10:47 1 1009 0 0 S 0 79.2 703
21:13:45 1 1009 0 0 S 0 79.2 696
21:16:46 1 1007 0 0 S 0 79 694
21:19:46 1 1009 0 0 O 0 78.9 706
21:22:47 1 1008 0 0 S 0 78.7 712
21:25:47 1 1008 0 0 S 0 78.5 707
21:28:47 1 1008 0 0 SO 0 77.9 710
21:31:47 1 1008 0 0 SO 0 77.5 705
21:34:49 1 1009 0 0 SO 0 77.4 713
21:37:47 1 1008 0 0 NO 0 77.4 708
21:40:48 1 1008 0 0 SW 0 77.4 698
21:46:47 1 1009 0 0 NO 0 77.8 703
21:49:46 1 1008 0 0 SO 0 78 706
21:52:47 1 1010 0 0 SO 0 78.5 709
21:55:51 1 1008 0 0 SO 0 78.9 707
21:58:48 1 1009 0 0 NW 0 79.1 706
22:01:45 1 1008 0 0 O 0 79.4 711
22:04:48 1 1009 0 0 NO 0 79.6 708
22:07:47 1 1008 0 0 NO 0 80 703
22:10:47 1 1009 0 0 O 0 81.5 706
22:13:47 1 1009 0 0 SO 0 81.7 706
22:16:45 0 1008 0 0 N 0 81.2 706
22:19:45 0 1009 0 0 N 0 81.4 708
22:22:46 0 1008 0 0 S 0 81.6 712
22:25:46 0 1009 0 0 N 0 82.2 710
22:28:48 0 1009 0 0 SO 0 82.3 710
22:31:49 0 1009 0 0 SO 0 82.2 713
22:34:47 0 1008 0 0 SO 0 82.1 709
22:37:48 0 1009 0 0 NO 0 82.1 715
22:40:46 0 1009 0 0 SO 0 82.1 711
22:43:48 1 1008 0 0 S 0 82.2 715
22:46:46 1 1008 0 0 O 0 82.2 720
22:49:47 1 1009 0 0 O 0 82 721
22:52:49 1 1009 0 0 O 0 81.9 718
22:55:47 1 1009 0 0 NW 0 81.8 715
22:58:45 1 1009 0 0 O 0 81.6 717
23:01:45 1 1008 0 0 N 0 81.3 717
23:04:48 1 1009 0 0 NO 0 82 728
23:07:50 1 1009 0 0 SO 0 82 729
23:10:46 1 1009 0 0 N 0 82 723
23:13:45 1 1009 0 0 N 0 82.1 718
23:16:49 1 1008 0 0 SO 0 82.3 718
23:19:46 0 1009 0 0 N 0 82.1 715
23:22:46 0 1008 0 0 NO 0 82 712
23:25:45 0 1009 0 0 N 0 82 711
23:28:47 0 1008 0 0 N 0 81.7 717
23:31:44 0 1008 0 0 O 0 81.5 717
23:34:49 0 1008 0 0 SO 0 81.1 725
23:37:48 0 1008 0 0 SO 0 80.9 720
23:40:47 0 1008 0 0 SO 0 80.6 715
23:43:46 0 1008 0 0 O 0 80.3 718
23:46:47 0 1008 0 0 NO 0 80.4 720
23:49:47 0 1009 0 0 NO 0 80.6 711
23:52:47 0 1009 0 0 SO 0 80.6 700
23:55:46 0 1008 0 0 NO 0 80.8 696
23:58:47 0 1008 0 0 NO 0 80.9 705

Letzte Änderung : 22-Jul-2022
Copyright Jens Köhler, Wolfsburg, Obere Dorfstraße 10d